Regional Weather Roundup
Issued by NWS Northern Indiana

Home | Current Version | Previous Version | Graphics & Text | Print | Product List | Glossary On
Versions: 1 2 3 4 5 6 7 8 9 10 11 12 13 14 15 16 17 18 19 20 21 22 23 24 25 26 27 28 29 30 31 32 33 34 35 36 37 38 39 40 41 42 43 44 45 46 47 48 49 50
248
ASUS43 KIWX 211901
RWRIWX

KIWX WEATHER ROUNDUP
NATIONAL WEATHER SERVICE NORTHERN INDIANA
300 PM EDT MON AUG 21 2017

NOTE: "FAIR" INDICATES FEW OR NO CLOUDS BELOW 12,000 FEET WITH NO
SIGNIFICANT WEATHER AND/OR OBSTRUCTIONS TO VISIBILITY.

* THESE STATIONS ARE NOT UNDER NWS QUALITY CONTROL. THEY ALSO MAY NOT
  REPORT WEATHER SUCH AS PRECIPITATION OR FOG.

INZ001>027-212000-
NORTHERN INDIANA

CITY           SKY/WX    TMP DP  RH WIND       PRES   REMARKS
GARY*          CLOUDY    82  72  69 CALM      30.04F
MICHIGAN CITY* CLOUDY    79  70  73 W5        30.07S
SOUTH BEND     MOSUNNY   80  72  76 NW8       30.07F
ELKHART*       MOSUNNY   81  68  65 W12       30.06F
GOSHEN         PTSUNNY   81  68  64 W8        30.07F
MONTICELLO*    MOSUNNY   80  70  71 W5        30.07F
FORT WAYNE     PTSUNNY   83  72  69 SW8       30.08F
PERU/GRISSOM   CLOUDY    82  75  80 W8        30.08F

$$
INZ028>050-212000-
CENTRAL INDIANA

CITY           SKY/WX    TMP DP  RH WIND       PRES   REMARKS
LAFAYETTE      CLOUDY    80  70  71 W3        30.08F
KOKOMO*        MOSUNNY   81  75  82 W6        30.10F
MUNCIE*        MOSUNNY   84  73  69 W6        30.10F
INDIANAPOLIS   PTSUNNY   87  72  60 SW9       30.08F

$$
MIZ043>046-050>051-056>058-064>065-071>073-077>080-212000-
SOUTHWEST LOWER MICHIGAN

CITY           SKY/WX    TMP DP  RH WIND       PRES   REMARKS
BATTLE CREEK   PTSUNNY   82  71  69 NW9       30.06F
BENTON HARBOR  PTSUNNY   77  69  76 NE3       30.04F
COLDWATER*     MOSUNNY   82  69  64 SW3       30.06F
HILLSDALE*     CLOUDY    81  72  74 S7        30.07F
HOLLAND        PTSUNNY   75  70  84 SW9       30.06F
GRAND RAPIDS   CLOUDY    81  71  71 SW7       30.04F
KALAMAZOO      MOSUNNY   83  69  62 NW12      30.06F
STURGIS*       CLOUDY    82  69  66 W6        30.05F
THREE RIVERS*  FAIR      83  67  58 W8        30.06F

$$
OHZ001>008-015>018-024>025-212000-
NORTHWEST OHIO

CITY           SKY/WX    TMP DP  RH WIND       PRES   REMARKS
DEFIANCE       SUNNY     83  72  69 SW3       30.06F
FINDLAY        HVY RAIN  79  69  71 SW18G36   30.07F
TOLEDO EXPRESS MOSUNNY   83  72  69 CALM      30.06F
TOLEDO METCALF MOSUNNY   85  70  60 SW5       30.07F
LIMA           MOSUNNY   83  73  72 S9        30.09F

$$
AND FOR LAKE MICHIGAN COASTAL AND OPEN LAKE BUOY OBSERVATIONS

STATION/POSITION TEMP    WIND        PRES    VSBY  WAVE
                 AIR SEA DIR/SP/G                  HT/PER
                 (F)     (DEG/KT/KT) (MB)    (MI)  (FT/S)
CALUMET HARBOR    80     200/  4/  5 1016.5F
MICHIGAN CITY     76     210/  6/  6   N/A
BURNS HARBOR      78      60/  2/  3 1017.9F
SAINT JOSEPH      77     240/  5/  6 1019.3
SOUTH LAKE BUOY   73 72  280/  6/  8 1018.1          1/ 4
4 MI NW BRIDGMAN  74 75  180/  4/  6 1017.0F         1/ 3
MICHIGAN CITY     76 75  210/  2/  4   N/A           1

$$
&&




USA.gov is the U.S. government's official web portal to all federal, state and local government web resources and services.